Regional Weather Roundup
Issued by NWS

Home | Current Version | Previous Version | Graphics & Text | Print | Product List | Glossary On
Versions: 1 2 3 4 5 6 7 8 9 10 11 12 13 14 15 16 17 18 19 20 21 22 23 24 25 26 27 28 29 30 31 32 33 34 35 36 37 38 39 40 41 42 43 44 45 46 47 48 49 50
772
ASUS43 KDMX 230906
RWRIA

WEATHER ROUNDUP FOR IOWA
NATIONAL WEATHER SERVICE DES MOINES IA
400 AM CDT SAT SEP 23 2017

NOTE: "FAIR" INDICATES FEW OR NO CLOUDS BELOW 12,000 FEET WITH NO
SIGNIFICANT WEATHER AND/OR OBSTRUCTIONS TO VISIBILITY.

* - THESE STATIONS ARE NOT NWS STATIONS...THUS NOT UNDER NWS
QUALITY CONTROL.  THEY ALSO DO NOT REPORT WEATHER SUCH
AS PRECIPITATION OR FOG.

IAZ001>003-012>014-020>022-031>034-043>046-231000-
   NORTHWEST IOWA

CITY           SKY/WX    TMP DP  RH WIND       PRES   REMARKS
CARROLL *      CLEAR     68  66  94 SE5       29.93R
CHEROKEE *     CLEAR     72  69  90 S7        29.90S
DENISON *      CLEAR     72  68  88 SW6       29.94R
LE MARS *      PTCLDY    73  68  83 S10       29.88S
ORANGE CITY *  PTCLDY    72  70  94 S6        29.89S
SHELDON *      CLEAR     72  68  88 S9G16     29.87S
SIOUX CITY     MOCLDY    71  69  93 SE7       29.88R
SPENCER        CLEAR     69  67  93 S6        29.91S
STORM LAKE *   CLEAR     70  66  88 S10       29.92S
$$

IAZ055>058-069>071-079>083-090>094-231000-
   SOUTHWEST IOWA

CITY           SKY/WX    TMP DP  RH WIND       PRES   REMARKS
ATLANTIC *     CLEAR     72  68  88 SW7       29.93R
AUDUBON *      CLEAR     73  66  78 S7        29.94R
CLARINDA *     CLEAR     72  68  88 S8        29.95S
COUNCIL BLFS * CLEAR     75  70  83 S12       29.92R
CRESTON *      CLEAR     70  66  88 S8        29.97S
HARLAN  *      CLEAR     72  68  88 S6        29.96R
LAMONI         CLEAR     71  67  87 S7        29.97S
RED OAK *      CLEAR     72  68  88 S8        29.93R
SHENANDOAH *   CLEAR     73  68  83 S10       29.93R
$$

IAZ047>049-059>061-072>074-084-231000-
   CENTRAL IOWA

CITY           SKY/WX    TMP DP  RH WIND       PRES   REMARKS
AMES           CLEAR     67  67 100 SE3       29.95R
ANKENY *       CLEAR     70  66  88 SE6       29.96R
BOONE *        CLEAR     72  68  88 S7        29.95R
CHARITON *     CLEAR     68  66  94 SE6       29.97S
DES MOINES     CLEAR     73  67  81 S7        29.95R
GRINNELL*      CLEAR     69  64  86 SE3       30.00R
KNOXVILLE *    CLEAR     72  64  78 S5        29.96R
MARSHALLTOWN   CLEAR     70  67  90 SE7       29.96S
NEWTON *       CLEAR     68  64  88 SE7       29.98R
PELLA *        CLEAR     72  65  79 S6        29.99R
PERRY *          N/A     70  69  95 S5        29.94R
$$

IAZ004>006-015-016-023>025-035-036-231000-
   NORTH CENTRAL IOWA

CITY           SKY/WX    TMP DP  RH WIND       PRES   REMARKS
ALGONA *       CLEAR     70  70 100 S8        29.93R
CLARION *      CLEAR     72  70  94 S9        29.94R
ESTHERVILLE    CLEAR     69  68  96 S9        29.90S
FORT DODGE *   CLEAR     74  32  21 S12       29.94R
MASON CITY     CLEAR     69  66  90 S8        29.96R
FOREST CITY *    N/A     72  66  83 S5        29.94R
WEBSTER CITY * CLEAR     70  66  88 SE6       29.93R
IOWA FALLS *     N/A     71  67  87 S8        29.97R
$$

IAZ007>011-017>019-026>030-037>042-050>054-066-231000-
   NORTHEAST IOWA

CITY           SKY/WX    TMP DP  RH WIND       PRES   REMARKS
CEDAR RAPIDS   CLEAR     69  64  84 SE5       29.99R
CHARLES CITY * CLEAR     70  68  94 S7        29.96S
CLINTON *      CLEAR    N/A N/A N/A SE7       30.01F
DECORAH *      CLEAR     70  64  83 S7        29.97S
DUBUQUE        CLEAR     68  63  84 S6        30.02R
MONTICELLO *   CLEAR     68  63  83 CALM      30.00R
OELWEIN *        N/A     66  66 100 S7        29.99R
WATERLOO       CLEAR     70  64  81 S7        29.96S
$$

IAZ064-065-067-068-078-231000-
   EAST CENTRAL IOWA

CITY           SKY/WX    TMP DP  RH WIND       PRES   REMARKS
DAVENPORT      CLEAR     69  63  81 SE7       30.03S
IOWA CITY      CLEAR     67  63  87 CALM      30.00S
MT. PLEASANT * CLEAR     68  62  79 S3        30.00R
MUSCATINE *    CLEAR     64  63  94 CALM      30.01R
QUAD CITIES    CLEAR     69  63  81 CALM      30.00S
$$

IAZ062-063-075>077-085>089-095>099-231000-
   SOUTHEAST IOWA

CITY           SKY/WX    TMP DP  RH WIND       PRES   REMARKS
BURLINGTON     CLEAR     70  64  81 SE3       30.00S
FAIRFIELD *    CLEAR     72  63  73 S6        29.99R
FORT MADISON * CLEAR     75  63  64 S7        30.01R
KEOKUK *       CLEAR     72  63  73 S5        29.99S
OSKALOOSA *      N/A     66  64  91 S3        29.99R
OTTUMWA        CLEAR     71  65  81 S7        29.98S
WASHINGTON *   CLEAR     66  64  94 S6        30.00S
$$

ABBREVIATIONS USED IN REMARKS
   TC - TEMPERATURES IN CELSIUS
  WCI - WIND CHILL INDEX
   HX - HEAT INDEX
  VSB - VISIBILITY
$$





USA.gov is the U.S. government's official web portal to all federal, state and local government web resources and services.